Startical IOD-2

operational
NORAD ID: 64538 Int'l Des: 2025-135 Owner: STCAL Country: E
LEOCIRCULARRETROGRADESSO

Über Startical IOD-2

Beschreibung wird geladen...

Live-Position

3D-Globus wird geladen...

Nächste Überflüge

Höhenverlauf

Altitude vs Time

uPlot chart will show altitude changes over time

Zweizeiliger Elementsatz

1 64538U 25135L 25340.95192030 .00007510 00000-0 36874-3 0 9999
2 64538 97.4574 92.8376 0006027 120.1183 240.0649 15.18346185 25633
Epoch: 6. Dez. 2025 • Age: 18 hours

Aktueller Status

Höhe 530.3 km
Geschwindigkeit 7.60 km/s
Subsatellitenpunkt -46.58°S, 69.64°W
Startdatum 23. Juni 2025
Alter 0.4 years
Typ other

Technische Details

Klassifizierung Payload
Masse 100.00 kg
Trockenmasse 100.00 kg
Gesamtmasse 100.00 kg
Länge 0.40 m
Durchmesser 0.20 m
Spannweite 1.00 m
Form Box+2 pan
Hersteller NANAV
Bus-Typ MP42
Phasenstatus In Orbit
Besitzer/Staat STCAL/E

Große Konstellationen

Loading constellations...